Weather History for St. Joseph, MO

Change the Weather History Date:

Sunday, November 25, 2012

  Actual Average Record
Temperature  
Mean Temperature 40 °F 37 °F  
Max Temperature 55 °F 48 °F 68 °F (1981)
Min Temperature 25 °F 27 °F 12 °F (1977)
Degree Days  
Heating Degree Days 25 28  
Month to date heating degree days 453 547  
Since 1 July heating degree days 954 966  
Cooling Degree Days 0 0  
Month to date cooling degree days 5 0  
Year to date cooling degree days 1565 1220  
Moisture  
Dew Point 26 °F    
Average Humidity 65    
Maximum Humidity 92    
Minimum Humidity 38    
Precipitation  
Precipitation 0.00 in 0.05 in 0.80 in (1978)
Month to date precipitation 1.79 1.35  
Year to date precipitation 22.31 33.88  
Sea Level Pressure  
Sea Level Pressure 29.99 in    
Wind  
Wind Speed 6 mph (NNE)    
Max Wind Speed 15 mph    
Max Gust Speed 17 mph    
Visibility 10 miles    
Events      
T = Trace of Precipitation, MM = Missing Value Source: NWS Daily Summary

Daily Weather History Graph

Daily Weather History Graph

Search for Another Location

Airport:

Trip Planner

Search our weather history database for the weather conditions in past years. The results will help you decide how hot, cold, wet, or windy it might be!

Date:

Astronomy

Nov. 25, 2012 Rise Set
Actual Time 7:15 AM CST 4:57 PM CST
Civil Twilight 6:46 AM CST 5:26 PM CST
Nautical Twilight 6:13 AM CST 6:00 PM CST
Astronomical Twilight 5:40 AM CST 6:32 PM CST
Moon 3:14 PM CST 4:31 AM CST
Length of Visible Light 10h 40m
Length of Day
9h 41m
Waxing Gibbous, 93% of the Moon is Illuminated
Nov 25
Waxing Gibbous
Nov 28
Full
Dec 6
Last Quarter
Dec 13
New
Dec 19
First Quarter

Hourly Weather History & Observations

Time (CST) Temp. Windchill Dew Point Humidity Pressure Visibility Wind Dir Wind Speed Gust Speed Precip Events Conditions
12:53 AM 36.0 °F 32.1 °F 23.0 °F 59% 29.91 in 10.0 mi South 4.6 mph - N/A   Clear
1:53 AM 30.0 °F - 21.0 °F 69% 29.91 in 10.0 mi Calm Calm - N/A   Clear
2:53 AM 32.0 °F 26.4 °F 24.1 °F 73% 29.90 in 10.0 mi South 5.8 mph - N/A   Clear
3:53 AM 30.9 °F - 23.0 °F 72% 29.91 in 10.0 mi Calm Calm - N/A   Clear
4:53 AM 25.0 °F - 19.9 °F 81% 29.92 in 10.0 mi Calm Calm - N/A   Clear
5:53 AM 27.0 °F - 24.1 °F 89% 29.93 in 10.0 mi Calm Calm - N/A   Clear
6:53 AM 28.9 °F - 24.1 °F 82% 29.94 in 10.0 mi Calm Calm - N/A   Clear
7:53 AM 28.9 °F - 23.0 °F 78% 29.97 in 10.0 mi Calm Calm - N/A   Clear
8:53 AM 35.1 °F - 28.0 °F 76% 29.99 in 10.0 mi Calm Calm - N/A   Clear
9:53 AM 44.1 °F 40.8 °F 28.0 °F 53% 30.00 in 10.0 mi North 5.8 mph - N/A   Clear
10:53 AM 48.9 °F - 28.0 °F 44% 30.00 in 10.0 mi NNE 9.2 mph - N/A   Clear
11:53 AM 52.0 °F - 30.0 °F 43% 29.96 in 10.0 mi North 9.2 mph - N/A   Clear
12:53 PM 55.0 °F - 30.0 °F 38% 29.95 in 10.0 mi NNE 9.2 mph - N/A   Clear
1:53 PM 53.1 °F - 28.0 °F 38% 29.95 in 10.0 mi NNE 10.4 mph - N/A   Clear
2:53 PM 52.0 °F - 28.0 °F 40% 29.96 in 10.0 mi NNE 10.4 mph - N/A   Clear
3:53 PM 50.0 °F - 28.9 °F 44% 29.98 in 10.0 mi North 11.5 mph - N/A   Clear
4:53 PM 43.0 °F 37.7 °F 27.0 °F 53% 30.00 in 10.0 mi NNE 9.2 mph - N/A   Clear
5:53 PM 37.0 °F 30.4 °F 26.1 °F 65% 30.02 in 10.0 mi NNE 9.2 mph - N/A   Clear
6:53 PM 34.0 °F 27.2 °F 25.0 °F 70% 30.04 in 10.0 mi NNE 8.1 mph - N/A   Clear
7:53 PM 36.0 °F 29.0 °F 27.0 °F 70% 30.06 in 10.0 mi NNE 9.2 mph - N/A   Clear
8:53 PM 34.0 °F 26.0 °F 26.1 °F 73% 30.08 in 10.0 mi NNE 10.4 mph - N/A   Clear
9:53 PM 32.0 °F 23.6 °F 25.0 °F 75% 30.09 in 10.0 mi NNE 10.4 mph - N/A   Clear
10:53 PM 33.1 °F 26.1 °F 25.0 °F 72% 30.10 in 10.0 mi NE 8.1 mph - N/A   Clear
11:53 PM 30.9 °F 21.7 °F 25.0 °F 79% 30.11 in 10.0 mi North 11.5 mph - N/A   Clear